Gene Autry, OK

12:06 AM CDT on September 28, 2016 (GMT -0500)
Ardmore Municipal

Weather History for KADM - January, 2014

Change the Weather History Date:

Thursday, January 30, 2014

  Actual Average Record
Temperature  
Mean Temperature 44 °F -  
Max Temperature 57 °F 51 °F 75 °F (2016)
Min Temperature 31 °F 33 °F 15 °F (2000)
Degree Days  
Heating Degree Days 21    
Moisture  
Dew Point 26 °F    
Average Humidity 60    
Maximum Humidity 89    
Minimum Humidity 44    
Precipitation  
Precipitation 0.00 in - - ()
Sea Level Pressure  
Sea Level Pressure 29.93 in    
Wind  
Wind Speed 10 mph (SSE)    
Max Wind Speed 20 mph    
Max Gust Speed 30 mph    
Visibility 10 miles    
Events      
Averages and records for this station are not official NWS values.
T = Trace of Precipitation, MM = Missing Value Source: NWS Daily Summary

Daily Weather History Graph

Daily Weather History Graph

Search for Another Location

Airport or City:

Trip Planner

Search our weather history database for the weather conditions in past years. The results will help you decide how hot, cold, wet, or windy it might be!

Date:

Astronomy

Jan. 30, 2014 Rise Set
Actual Time 7:26 AM CST 5:56 PM CST
Civil Twilight 7:00 AM CST 6:22 PM CST
Nautical Twilight 6:30 AM CST 6:52 PM CST
Astronomical Twilight 6:00 AM CST 7:22 PM CST
Moon 6:55 AM CST (1/30) 6:06 PM CST (1/30)
Length of Visible Light 11h 22m
Length of Day
10h 29m
Waning Crescent, 0% of the Moon is Illuminated
Jan 30
Waning Crescent
Jan 30
New
Feb 6
First Quarter
Feb 14
Full
Feb 22
Last Quarter

Hourly Weather History & Observations

Time (CST) Temp. Windchill Dew Point Humidity Pressure Visibility Wind Dir Wind Speed Gust Speed Precip Events Conditions
12:15 AM 31.3 °F 24.7 °F 15.6 °F 52% 30.10 in 10.0 mi SSE 6.9 mph - N/A   Clear
12:35 AM 32.4 °F 24.6 °F 15.8 °F 51% 30.09 in 10.0 mi South 9.2 mph - N/A   Clear
12:55 AM 32.9 °F 24.7 °F 16.0 °F 50% 30.08 in 10.0 mi South 10.4 mph - N/A   Clear
1:15 AM 32.9 °F 25.3 °F 16.3 °F 51% 30.07 in 10.0 mi SSE 9.2 mph - N/A   Clear
1:35 AM 33.1 °F 25.5 °F 16.3 °F 50% 30.07 in 10.0 mi SSE 9.2 mph 17.3 mph N/A   Clear
1:55 AM 32.5 °F 24.8 °F 16.3 °F 51% 30.07 in 10.0 mi SSE 9.2 mph - N/A   Clear
2:15 AM 32.0 °F 24.2 °F 16.7 °F 53% 30.06 in 10.0 mi SSE 9.2 mph - N/A   Clear
2:35 AM 31.3 °F 23.9 °F 17.4 °F 57% 30.04 in 10.0 mi SSE 8.1 mph - N/A   Clear
2:55 AM 31.6 °F 23.7 °F 17.6 °F 56% 30.03 in 10.0 mi SSE 9.2 mph - N/A   Clear
3:15 AM 32.2 °F 24.4 °F 17.6 °F 55% 30.01 in 10.0 mi SSE 9.2 mph - N/A   Clear
3:35 AM 32.9 °F 23.7 °F 17.6 °F 53% 29.99 in 10.0 mi SSE 12.7 mph - N/A   Clear
3:55 AM 32.7 °F 25.7 °F 17.8 °F 54% 30.00 in 10.0 mi SSE 8.1 mph - N/A   Clear
4:15 AM 32.7 °F 26.4 °F 18.0 °F 55% 29.99 in 10.0 mi South 6.9 mph - N/A   Clear
4:35 AM 32.5 °F 25.5 °F 18.3 °F 56% 29.99 in 10.0 mi SSE 8.1 mph - N/A   Clear
4:55 AM 32.5 °F 25.5 °F 18.5 °F 56% 29.97 in 10.0 mi SSE 8.1 mph - N/A   Clear
5:15 AM 32.0 °F 24.8 °F 18.7 °F 58% 29.97 in 10.0 mi South 8.1 mph - N/A   Clear
5:35 AM 32.2 °F 25.0 °F 19.0 °F 58% 29.95 in 10.0 mi SSE 8.1 mph 17.3 mph N/A   Clear
6:55 AM 32.0 °F 24.8 °F 19.4 °F 60% 29.95 in 10.0 mi SSE 8.1 mph - N/A   Clear
7:55 AM 32.0 °F 24.2 °F 21.2 °F 64% 29.93 in 10.0 mi SE 9.2 mph - N/A   Clear
8:55 AM 35.6 °F 27.5 °F 21.2 °F 56% 29.92 in 10.0 mi South 11.5 mph 20.7 mph N/A   Clear
9:55 AM 39.2 °F 29.6 °F 21.2 °F 49% 29.91 in 10.0 mi South 19.6 mph 27.6 mph N/A   Clear
10:55 AM 44.6 °F 37.4 °F 28.4 °F 53% 29.89 in 10.0 mi South 16.1 mph 29.9 mph N/A   Clear
11:55 AM 46.4 °F 39.2 °F 32.0 °F 57% 29.85 in 10.0 mi South 18.4 mph 29.9 mph N/A   Clear
12:55 PM 50.0 °F - 32.0 °F 50% 29.83 in 10.0 mi SSW 13.8 mph 27.6 mph N/A   Clear
1:55 PM 51.8 °F - 33.8 °F 50% 29.80 in 10.0 mi SSW 15.0 mph 20.7 mph N/A   Clear
2:55 PM 57.2 °F - 35.6 °F 44% 29.81 in 10.0 mi South 15.0 mph 19.6 mph N/A   Clear
3:55 PM 57.2 °F - 37.4 °F 48% 29.80 in 10.0 mi SSE 15.0 mph - N/A   Clear
4:55 PM 55.4 °F - 37.4 °F 51% 29.78 in 10.0 mi SE 13.8 mph - N/A   Clear
6:55 PM - - - N/A% 29.82 in 10.0 mi North - - N/A   Clear
7:55 PM 48.2 °F - 39.2 °F 71% 29.82 in 10.0 mi ESE 8.1 mph - N/A   Clear
8:55 PM 48.2 °F - 39.2 °F 71% 29.82 in 10.0 mi ESE 6.9 mph - N/A   Clear
9:55 PM 48.2 °F - 41.0 °F 76% 29.82 in 10.0 mi ESE 5.8 mph - N/A   Clear
10:35 PM 46.4 °F 42.4 °F 41.9 °F 84% 29.82 in 10.0 mi ESE 8.1 mph - N/A   Clear
10:55 PM 46.4 °F 41.5 °F 42.1 °F 85% 29.82 in 10.0 mi East 10.4 mph - N/A   Clear
11:15 PM 46.2 °F 42.7 °F 42.3 °F 86% 29.82 in 10.0 mi ESE 6.9 mph - N/A   Clear
11:35 PM 46.2 °F 42.2 °F 42.8 °F 88% 29.81 in 10.0 mi ESE 8.1 mph - N/A   Clear
11:55 PM 45.9 °F 41.7 °F 42.8 °F 89% 29.81 in 10.0 mi ESE 8.1 mph - N/A   Clear